TimeEDT,TemperatureF,Dew PointF,Humidity,Sea Level PressureIn,VisibilityMPH,Wind Direction,Wind SpeedMPH,Gust SpeedMPH,PrecipitationIn,Events,Conditions,WindDirDegrees,DateUTC
12:51 AM,78.1,66.0,66,29.78,10.0,SSW,10.4,-,N/A,,Overcast,210,2013-08-31 04:51:00
1:51 AM,77.0,66.0,69,29.78,10.0,SSW,12.7,-,N/A,,Overcast,210,2013-08-31 05:51:00
2:51 AM,75.9,66.0,71,29.80,10.0,SSW,9.2,-,0.00,Rain,Light Rain,210,2013-08-31 06:51:00
3:51 AM,75.9,66.9,74,29.78,10.0,NNW,4.6,-,0.00,Rain,Light Rain,330,2013-08-31 07:51:00
4:51 AM,73.9,69.1,85,29.75,9.0,NNE,8.1,-,0.01,,Scattered Clouds,30,2013-08-31 08:51:00
5:51 AM,73.0,69.1,87,29.76,8.0,ENE,6.9,-,N/A,,Mostly Cloudy,70,2013-08-31 09:51:00
6:51 AM,71.1,66.9,87,29.80,10.0,West,3.5,-,N/A,,Mostly Cloudy,280,2013-08-31 10:51:00
7:51 AM,72.0,68.0,87,29.83,7.0,SW,5.8,-,N/A,,Mostly Cloudy,230,2013-08-31 11:51:00
8:51 AM,73.0,68.0,84,29.85,10.0,WSW,6.9,-,N/A,,Overcast,240,2013-08-31 12:51:00
9:51 AM,77.0,69.1,76,29.84,10.0,SSW,4.6,-,N/A,,Mostly Cloudy,200,2013-08-31 13:51:00
10:51 AM,81.0,68.0,65,29.84,10.0,WSW,4.6,-,N/A,,Mostly Cloudy,250,2013-08-31 14:51:00
11:51 AM,82.0,68.0,62,29.83,10.0,WSW,8.1,-,N/A,,Mostly Cloudy,240,2013-08-31 15:51:00
12:51 PM,82.0,66.9,60,29.82,10.0,West,8.1,-,N/A,,Overcast,260,2013-08-31 16:51:00
1:51 PM,80.1,70.0,71,29.82,10.0,North,11.5,-,N/A,,Mostly Cloudy,10,2013-08-31 17:51:00
2:49 PM,78.8,69.8,74,29.84,10.0,North,11.5,-,N/A,,Overcast,10,2013-08-31 18:49:00
2:51 PM,78.1,69.1,74,29.83,10.0,North,12.7,-,N/A,,Overcast,10,2013-08-31 18:51:00
3:51 PM,81.0,71.1,72,29.82,10.0,NNW,8.1,-,N/A,,Mostly Cloudy,340,2013-08-31 19:51:00
4:51 PM,79.0,69.1,72,29.82,10.0,North,10.4,-,N/A,,Mostly Cloudy,350,2013-08-31 20:51:00
5:51 PM,78.1,69.1,74,29.82,10.0,NNW,10.4,-,N/A,,Mostly Cloudy,330,2013-08-31 21:51:00
6:51 PM,75.9,69.1,79,29.81,7.0,North,9.2,-,N/A,,Mostly Cloudy,350,2013-08-31 22:51:00
7:51 PM,75.0,69.1,82,29.82,8.0,North,4.6,-,N/A,,Mostly Cloudy,360,2013-08-31 23:51:00
8:51 PM,75.0,69.1,82,29.85,9.0,North,4.6,-,N/A,,Overcast,10,2013-09-01 00:51:00
9:51 PM,73.9,69.1,85,29.83,9.0,NE,6.9,-,N/A,,Mostly Cloudy,50,2013-09-01 01:51:00
10:51 PM,73.0,68.0,84,29.84,9.0,Calm,Calm,-,N/A,,Scattered Clouds,0,2013-09-01 02:51:00
11:51 PM,73.0,68.0,84,29.83,10.0,SE,3.5,-,N/A,,Mostly Cloudy,130,2013-09-01 03:51:00